GEFSSE_con_cape1000_156.txt.gz
Probability
13 35 61 71 71 71 77 77 90 90 87 65 55 58 58 61 61 58 55 58 55 48 35 32 26 19 26 35 32 29 29 19 13 10 10 10 6 6 6 3 3 0 3
16 35 65 68 71 71 71 77 74 87 94 81 68 61 55 58 61 61 58 52 48 42 42 29 19 26 26 23 16 16 16 13 10 6 0 0 3 3 0 0 0 0 0
23 29 58 65 71 74 71 71 71 77 84 77 84 74 68 61 65 58 55 52 48 42 39 35 29 23 23 13 16 16 13 6 6 0 0 0 0 3 0 3 3 0 0
23 29 45 61 68 65 68 68 68 68 71 77 81 77 77 68 71 61 58 58 58 48 48 45 35 26 19 13 16 19 10 6 3 0 0 0 0 3 0 0 0 0 0
19 19 39 55 58 61 61 68 65 65 68 68 68 74 74 74 71 71 65 65 65 55 52 48 29 23 19 13 16 16 13 6 0 0 0 0 0 3 3 0 0 0 0
16 19 29 42 48 52 55 61 68 68 68 61 61 65 71 71 74 71 71 68 68 65 55 48 35 23 19 16 16 13 13 6 0 0 0 0 0 3 0 0 0 0 0
13 16 19 35 39 48 48 52 61 61 65 61 61 58 65 65 74 81 77 71 58 58 52 39 35 26 16 19 16 13 13 0 0 0 0 0 0 3 0 0 0 0 0
10 16 16 26 29 29 42 45 48 55 52 61 61 55 55 58 65 71 71 61 55 58 52 42 39 29 23 19 19 16 6 0 0 0 0 0 0 3 3 0 0 0 0
13 13 16 16 19 29 29 39 45 48 45 52 55 65 48 45 58 68 52 52 55 55 52 45 35 26 23 19 19 13 3 0 0 0 0 0 0 3 6 0 0 0 0
3 3 10 10 10 10 13 19 16 26 39 45 39 26 29 29 35 42 29 32 48 55 52 39 29 26 19 16 6 3 0 0 0 0 0 0 0 3 3 0 0 0 0
3 3 3 10 6 6 6 10 13 6 6 13 10 10 10 6 6 19 6 10 13 32 39 29 29 23 10 3 0 0 0 0 0 0 0 0 0 0 3 0 0 0 0
3 0 0 0 0 0 6 3 0 0 0 0 0 0 0 0 3 6 6 3 10 10 6 13 13 6 3 0 0 0 0 0 0 0 0 0 0 0 0 0 0 0 0
0 0 0 0 0 0 0 0 0 0 0 0 0 0 0 0 0 0 3 0 3 3 3 6 3 3 0 0 0 0 0 0 0 0 0 0 0 0 0 3 0 0 0
0 0 0 0 0 0 0 0 0 0 0 0 0 0 0 0 0 0 3 3 0 0 0 0 3 0 0 0 0 0 0 0 0 0 0 0 0 3 3 6 3 0 0
0 0 0 0 0 0 0 0 0 0 0 0 0 0 0 0 0 0 0 0 0 0 0 0 0 0 0 0 0 0 0 0 0 0 0 0 0 0 6 10 10 3 0
0 0 0 0 0 0 0 0 0 0 0 0 0 0 0 0 0 0 0 0 0 0 0 0 0 0 0 0 0 0 0 0 0 0 0 0 0 0 6 10 10 10 6
0 0 0 0 0 0 0 0 0 0 0 0 0 0 0 0 0 0 0 0 0 0 0 0 0 0 0 0 0 0 0 0 0 0 0 0 0 0 0 10 10 10 10
0 0 0 0 0 0 0 0 0 0 0 0 0 0 0 0 0 0 0 0 0 0 0 0 0 0 0 0 0 0 0 0 0 0 0 0 0 0 0 0 6 10 10
0 0 0 0 0 0 0 0 0 0 0 0 0 0 0 0 0 0 0 0 0 0 0 0 0 0 0 0 0 0 0 0 0 0 0 0 0 0 0 0 0 0 0
0 0 0 0 0 0 0 0 0 0 0 0 0 0 0 0 0 0 0 0 0 0 0 0 0 0 0 0 0 0 0 0 0 0 0 0 0 0 0 0 0 0 0
0 0 0 0 0 0 0 0 0 0 0 0 0 0 0 0 0 0 0 0 0 0 0 0 0 0 0 0 0 0 0 0 0 0 0 0 0 0 0 0 0 0 0
0 0 0 0 0 0 0 0 0 0 0 0 0 0 0 0 0 0 0 0 0 0 0 0 0 0 0 0 0 0 0 0 0 0 0 0 0 0 0 0 0 0 0
0 0 0 0 0 0 0 0 0 0 0 0 0 0 0 0 0 0 0 0 0 0 0 0 0 0 0 0 0 0 0 0 0 0 0 0 0 0 0 0 0 0 0
0 0 0 0 0 0 0 0 0 0 0 0 0 0 0 0 0 0 0 0 0 0 0 0 0 0 0 0 0 0 0 0 0 0 0 0 0 0 0 0 0 0 0
0 0 0 0 0 0 0 0 0 0 0 0 0 0 0 0 0 0 0 0 0 0 0 0 0 0 0 0 0 0 0 0 0 0 0 0 0 0 0 0 0 0 0
0 0 0 0 0 0 0 0 0 0 0 0 0 0 0 0 0 0 0 0 0 0 0 0 0 0 0 0 0 0 0 0 0 0 0 0 0 0 0 0 0 0 0

GEFSSE_con_cape1000_162.txt.gz
Probability
10 19 48 61 68 71 74 77 74 71 71 71 61 65 65 68 65 65 55 52 52 39 32 23 23 29 29 23 16 26 23 16 16 10 10 10 6 6 6 3 3 0 3
10 19 48 61 68 71 68 71 71 68 65 61 58 61 55 65 61 61 55 48 42 35 29 23 19 23 23 23 16 16 13 10 6 6 0 0 3 3 3 0 0 0 0
13 23 39 61 61 58 65 65 65 58 61 58 61 55 61 58 61 61 65 55 45 35 32 26 23 26 19 16 16 16 10 10 6 3 0 0 0 3 0 0 0 0 0
16 26 39 55 55 61 58 61 58 65 58 58 55 65 61 52 52 58 65 52 52 45 42 35 39 26 19 16 16 10 10 10 6 0 0 0 0 0 0 3 0 0 0
19 23 29 48 55 55 52 55 55 52 52 55 58 58 61 61 48 52 58 58 55 48 42 35 35 23 23 16 13 10 10 10 3 0 0 0 0 0 0 3 0 0 0
16 23 23 45 48 52 48 48 48 52 48 48 52 58 58 55 48 52 55 65 68 61 35 42 35 26 23 19 13 13 13 10 0 0 0 0 0 0 0 3 0 0 0
16 13 19 32 35 42 45 45 48 45 42 48 45 52 55 45 48 55 52 55 55 55 42 39 26 23 23 23 13 13 13 3 0 0 0 0 0 3 3 3 0 0 0
13 16 16 23 26 32 32 35 39 39 39 39 35 39 39 42 42 58 48 52 52 52 52 39 35 26 23 16 16 16 6 0 0 0 0 0 0 6 3 3 0 0 0
13 13 13 16 16 19 23 29 29 35 39 39 39 35 29 39 42 45 52 55 42 45 42 42 32 32 29 19 13 10 0 0 0 0 0 0 0 3 3 3 0 0 0
6 6 10 13 13 13 16 16 16 19 16 19 19 16 19 16 26 29 26 29 39 32 35 29 32 26 19 10 6 0 0 0 0 0 0 0 0 0 3 3 0 0 0
6 3 3 0 0 3 10 10 6 6 6 6 6 0 3 6 10 10 6 10 10 19 26 29 23 23 3 3 3 0 0 0 0 0 0 0 0 0 0 6 0 0 0
6 3 0 0 0 0 0 3 3 0 0 0 0 0 0 3 3 3 3 3 6 6 10 13 10 6 0 0 0 0 0 0 0 0 0 0 0 0 3 3 6 0 0
3 3 0 0 0 0 0 0 0 0 0 0 0 0 0 0 0 3 0 0 3 3 3 10 3 0 0 0 0 0 0 0 0 0 0 0 0 0 3 3 6 3 0
0 3 0 0 0 0 0 0 0 0 0 0 0 0 0 0 0 0 0 0 0 0 0 0 0 0 0 0 0 0 0 0 0 0 0 0 0 0 0 0 6 3 0
0 0 0 0 0 0 0 0 0 0 0 0 0 0 0 0 0 0 0 0 0 0 0 0 0 0 0 0 0 0 0 0 0 0 0 0 0 0 0 0 0 0 0
0 0 0 0 0 0 0 0 0 0 0 0 0 0 0 0 0 0 0 0 0 0 0 0 0 0 0 0 0 0 0 0 0 0 0 0 0 0 0 0 0 3 0
0 0 0 0 0 0 0 0 0 0 0 0 0 0 0 0 0 0 0 0 0 0 0 0 0 0 0 0 0 0 0 0 0 0 0 0 0 0 0 0 0 0 6
0 0 0 0 0 0 0 0 0 0 0 0 0 0 0 0 0 0 0 0 0 0 0 0 0 0 0 0 0 0 0 0 0 0 0 0 0 0 0 0 0 0 0
0 0 0 0 0 0 0 0 0 0 0 0 0 0 0 0 0 0 0 0 0 0 0 0 0 0 0 0 0 0 0 0 0 0 0 0 0 0 0 0 0 0 0
0 0 0 0 0 0 0 0 0 0 0 0 0 0 0 0 0 0 0 0 0 0 0 0 0 0 0 0 0 0 0 0 0 0 0 0 0 0 0 0 0 0 0
0 0 0 0 0 0 0 0 0 0 0 0 0 0 0 0 0 0 0 0 0 0 0 0 0 0 0 0 0 0 0 0 0 0 0 0 0 0 0 0 0 0 0
0 0 0 0 0 0 0 0 0 0 0 0 0 0 0 0 0 0 0 0 0 0 0 0 0 0 0 0 0 0 0 0 0 0 0 0 0 0 0 0 0 0 0
0 0 0 0 0 0 0 0 0 0 0 0 0 0 0 0 0 0 0 0 0 0 0 0 0 0 0 0 0 0 0 0 0 0 0 0 0 0 0 0 0 0 0
0 0 0 0 0 0 0 0 0 0 0 0 0 0 0 0 0 0 0 0 0 0 0 0 0 0 0 0 0 0 0 0 0 0 0 0 0 0 0 0 0 0 0
0 0 0 0 0 0 0 0 0 0 0 0 0 0 0 0 0 0 0 0 0 0 0 0 0 0 0 0 0 0 0 0 0 0 0 0 0 0 0 0 0 0 0
0 0 0 0 0 0 0 0 0 0 0 0 0 0 0 0 0 0 0 0 0 0 0 0 0 0 0 0 0 0 0 0 0 0 0 0 0 0 0 0 0 0 0

GEFSSE_con_cape1000_168.txt.gz
Probability
35 35 39 48 52 58 65 74 68 68 68 68 61 65 61 61 58 55 58 52 45 39 19 19 16 23 23 16 13 13 10 13 13 13 13 16 10 6 3 3 3 0 0
35 35 39 52 55 52 58 61 68 71 68 61 55 52 52 58 61 52 52 39 42 45 35 29 19 19 16 13 10 10 13 13 10 10 3 6 6 6 3 3 0 3 0
35 32 42 52 52 55 55 55 52 61 58 55 58 48 52 55 52 48 55 39 42 42 39 32 29 23 23 19 19 16 13 13 6 6 3 3 3 6 0 0 0 3 0
32 35 32 52 52 55 55 55 52 48 55 58 58 58 61 52 55 52 45 45 45 39 35 32 32 29 26 23 16 13 13 13 10 6 0 0 0 3 0 0 0 0 0
35 29 32 48 52 52 52 55 48 45 45 45 52 48 52 45 55 48 45 48 48 42 48 35 29 32 26 16 13 16 13 13 6 0 0 0 0 0 3 0 0 0 0
29 39 35 42 45 48 52 52 48 52 48 45 42 39 42 45 45 42 48 55 55 61 48 32 32 23 23 16 10 13 16 16 6 3 0 0 0 3 3 3 3 0 0
23 29 35 42 42 42 45 48 45 48 48 52 48 42 39 39 32 35 45 45 48 48 55 32 32 29 23 16 10 6 13 13 6 3 0 0 0 3 3 3 3 0 0
23 23 23 29 32 35 42 39 45 42 35 39 39 39 39 35 29 32 35 42 42 42 45 32 35 26 23 16 16 10 6 0 0 0 0 0 0 3 6 3 3 3 0
16 16 16 19 23 23 23 23 35 39 39 42 39 45 39 35 32 29 32 32 29 35 39 42 32 29 23 19 16 10 3 0 0 0 0 0 0 3 6 3 3 3 0
13 16 16 16 16 16 16 16 23 16 23 29 29 26 16 13 19 26 19 23 29 29 39 32 26 26 13 16 16 3 0 0 0 0 0 0 0 0 3 3 3 0 0
10 10 13 16 16 13 10 10 13 10 6 10 6 3 3 23 19 16 6 6 16 23 19 29 23 19 6 3 3 0 0 0 0 0 0 0 0 0 0 3 3 0 0
10 10 10 10 13 10 13 13 13 10 6 10 6 6 16 19 23 6 6 0 3 3 0 16 19 6 6 0 0 0 0 3 0 0 0 0 0 0 0 3 3 3 3
6 6 6 10 10 10 10 13 13 13 13 6 10 10 10 13 16 19 19 6 6 0 13 6 10 10 10 10 10 0 0 0 0 0 0 0 0 0 0 3 3 3 3
6 6 6 6 6 6 3 3 10 10 13 10 6 10 6 6 10 16 16 19 23 23 23 19 23 10 6 6 6 3 0 3 3 0 0 0 0 0 0 6 6 6 3
3 3 6 6 6 6 6 6 3 6 10 3 3 0 6 6 6 6 10 16 19 19 19 19 13 10 6 6 0 0 0 0 0 0 0 0 0 0 0 0 6 6 6
3 3 3 3 3 3 6 6 3 3 0 0 0 0 0 0 6 6 6 13 10 13 16 13 10 10 6 0 0 0 0 0 0 0 0 0 0 0 0 0 0 3 6
0 3 3 3 3 3 3 3 3 0 0 0 0 0 0 0 0 0 6 6 10 10 10 10 3 3 3 0 0 0 0 0 0 0 0 0 0 0 0 0 0 3 3
0 0 3 3 0 0 0 0 0 0 0 0 0 0 0 0 0 0 0 3 3 6 6 6 6 0 0 0 0 0 0 0 0 0 0 0 0 0 0 0 0 3 3
0 0 0 0 0 0 0 0 0 0 0 0 0 0 0 0 0 0 0 0 0 3 10 3 3 0 0 0 0 0 0 0 0 0 0 0 0 0 0 0 0 0 0
0 0 0 0 0 0 0 0 0 0 0 0 0 0 0 0 0 0 0 0 0 0 0 3 3 3 0 0 0 0 0 0 0 0 0 0 0 0 0 0 0 0 0
0 0 0 0 0 0 0 0 0 0 0 0 0 0 0 0 0 0 0 0 0 0 0 0 0 0 0 0 0 0 0 0 0 0 0 0 0 0 0 0 0 0 0
0 0 0 0 0 0 0 0 0 0 0 0 0 0 0 0 0 0 0 0 0 0 0 0 0 0 0 0 0 0 0 0 0 0 0 0 0 0 0 0 0 0 0
0 0 0 0 0 0 0 0 0 0 0 0 0 0 0 0 0 0 0 0 0 0 0 0 0 0 0 0 0 0 0 0 0 0 0 0 0 0 0 0 0 0 0
0 0 0 0 0 0 0 0 0 0 0 0 0 0 0 0 0 0 0 0 0 0 0 0 0 0 0 0 0 0 0 0 0 0 0 0 0 0 0 0 0 0 0
0 0 0 0 0 0 0 0 0 0 0 0 0 0 0 0 0 0 0 0 0 0 0 0 0 0 0 0 0 0 0 0 0 0 0 0 0 0 0 0 0 0 0
0 0 0 0 0 0 0 0 0 0 0 0 0 0 0 0 0 0 0 0 0 0 0 0 0 0 0 0 0 0 0 0 0 0 0 0 0 0 0 0 0 0 0

GEFSSE_con_cape1000_174.txt.gz
Probability
39 39 52 58 58 58 65 65 74 71 65 61 52 52 45 45 52 48 58 48 39 42 32 23 19 19 23 16 13 13 6 16 16 13 10 10 10 10 3 3 6 3 3
39 39 52 58 58 58 58 61 65 61 58 65 58 52 52 55 55 39 42 42 39 42 29 29 16 19 19 19 16 16 13 19 10 13 0 3 6 6 3 3 6 3 3
39 39 48 52 55 55 55 58 55 58 58 58 52 48 55 55 48 45 45 48 42 39 42 26 23 19 26 23 23 23 16 19 16 6 3 0 3 3 0 6 3 3 0
35 32 45 52 52 52 52 55 55 52 52 48 48 48 45 32 39 39 42 42 48 52 48 35 32 23 23 29 19 19 16 16 16 10 3 0 0 3 0 0 3 3 0
29 26 45 52 52 52 52 52 52 45 45 42 42 42 39 29 32 35 39 42 45 45 48 39 29 32 32 29 23 13 13 13 16 3 0 0 0 6 6 3 3 0 0
23 26 45 45 45 48 48 52 48 48 42 45 42 42 35 29 26 29 32 39 48 52 48 42 42 35 29 32 19 10 13 13 6 3 0 0 0 6 10 3 0 3 0
19 26 39 42 42 45 45 48 48 48 45 45 42 39 35 35 32 29 32 35 39 42 45 45 42 39 35 23 23 19 13 10 0 0 0 0 0 10 10 3 6 3 0
29 26 32 39 42 42 42 45 42 42 45 48 42 42 39 35 35 35 35 39 35 32 35 42 42 32 29 23 16 19 16 0 0 0 0 0 0 10 6 6 3 0 0
19 19 26 26 29 39 39 39 35 32 32 39 39 39 35 35 35 35 35 39 39 32 32 32 35 39 29 29 26 16 6 0 0 0 0 0 3 13 10 6 0 3 3
13 13 13 13 10 10 10 23 23 23 23 23 29 19 13 6 16 32 19 19 35 39 29 26 29 29 26 29 19 6 3 0 0 0 0 0 3 13 6 6 6 6 0
13 13 13 13 13 10 6 10 13 13 10 10 10 6 6 6 6 6 6 10 19 23 26 26 23 19 10 10 6 0 0 0 0 0 0 0 3 10 10 10 6 3 3
10 13 13 13 16 10 6 6 6 6 6 6 6 3 3 3 3 3 0 3 6 16 16 19 16 10 3 0 0 0 0 0 0 0 0 0 3 6 13 10 16 10 6
6 10 10 10 10 10 10 3 6 6 3 6 6 3 3 3 0 3 3 0 0 0 0 0 3 0 0 0 0 0 0 0 0 0 0 0 6 13 13 10 10 10 10
3 3 10 10 10 6 6 6 6 6 6 3 3 6 3 0 0 0 0 3 0 0 0 0 0 0 0 0 0 0 0 0 0 0 0 0 3 10 10 13 10 10 10
3 3 3 10 6 3 3 3 3 0 3 3 0 0 0 0 0 0 0 0 0 0 0 0 0 0 0 0 0 0 0 0 0 0 0 0 0 3 6 6 3 13 10
3 3 3 6 3 3 0 0 0 0 0 0 0 0 0 0 0 0 0 0 0 0 0 0 0 0 0 0 0 0 0 0 0 0 0 0 0 0 3 6 6 6 6
3 3 3 3 3 3 3 3 0 0 0 0 0 0 0 0 0 0 0 0 0 0 0 0 0 0 0 0 0 0 0 0 0 0 0 0 0 0 0 3 6 6 10
3 3 3 3 3 3 3 3 0 0 0 0 0 0 0 0 0 0 0 0 0 0 0 0 0 0 0 0 0 0 0 0 0 0 0 0 0 0 0 0 3 6 6
0 3 3 3 3 3 0 0 0 0 0 0 0 0 0 0 0 0 0 0 0 0 0 0 0 0 0 0 0 0 0 0 0 0 0 0 0 0 0 0 0 0 3
0 0 3 3 3 0 0 0 0 0 0 0 0 0 0 0 0 0 0 0 0 0 0 0 0 0 0 0 0 0 0 0 0 0 0 0 0 0 0 0 0 0 0
0 0 0 0 0 0 0 0 0 0 0 0 0 0 0 0 0 0 0 0 0 0 0 0 0 0 0 0 0 0 0 0 0 0 0 0 0 0 0 0 0 0 0
0 0 0 0 0 0 0 0 0 0 0 0 0 0 0 0 0 0 0 0 0 0 0 0 0 0 0 0 0 0 0 0 0 0 0 0 0 0 0 0 0 0 0
0 0 0 0 0 0 0 0 0 0 0 0 0 0 0 0 0 0 0 0 0 0 0 0 0 0 0 0 0 0 0 0 0 0 0 0 0 0 0 0 0 0 0
0 0 0 0 0 0 0 0 0 0 0 0 0 0 0 0 0 0 0 0 0 0 0 0 0 0 0 0 0 0 0 0 0 0 0 0 0 0 0 0 0 0 0
0 0 0 0 0 0 0 0 0 0 0 0 0 0 0 0 0 0 0 0 0 0 0 0 0 0 0 0 0 0 0 0 0 0 0 0 0 0 0 0 0 0 0
0 0 0 0 0 0 0 0 0 0 0 0 0 0 0 0 0 0 0 0 0 0 0 0 0 0 0 0 0 0 0 0 0 0 0 0 0 0 0 0 0 0 0

GEFSSE_con_cape1000_180.txt.gz
Probability
26 42 58 58 58 61 61 61 58 55 48 45 42 55 52 48 42 35 42 35 39 32 26 19 16 26 26 16 10 10 16 19 16 16 10 10 13 10 6 6 0 0 3
29 52 58 58 58 58 58 58 52 55 52 45 45 42 39 45 42 52 42 45 39 35 32 23 19 13 13 16 16 16 13 10 6 3 0 0 3 10 6 0 0 0 3
39 48 58 58 58 58 58 58 52 55 52 45 45 42 35 32 29 32 39 45 42 35 29 32 23 19 19 16 16 13 16 19 19 10 0 0 0 3 6 3 3 3 0
39 45 58 58 58 58 58 58 55 55 55 52 45 45 35 29 26 26 29 32 32 39 39 29 32 29 19 13 13 19 13 13 16 10 0 0 0 0 6 3 3 0 0
35 39 55 58 58 58 58 58 55 55 48 52 52 45 39 39 29 23 26 32 29 32 32 32 29 26 32 23 13 13 10 13 13 6 0 0 0 0 6 10 3 3 0
32 35 45 55 55 52 48 52 52 45 45 45 42 39 35 29 32 29 32 29 32 29 23 26 35 32 29 26 19 16 16 13 6 0 0 0 0 0 3 10 6 3 0
23 35 42 45 48 48 48 48 52 48 45 42 42 42 35 26 26 26 29 26 26 23 26 23 26 35 35 26 19 19 19 13 3 0 0 0 0 0 6 3 10 3 0
26 29 35 42 42 45 45 45 45 48 48 45 42 39 35 32 32 29 32 29 26 23 23 23 26 29 29 26 16 19 19 6 3 0 0 0 0 6 13 6 10 3 3
23 29 29 32 35 35 39 39 32 35 35 42 35 39 35 32 32 32 32 32 29 23 19 16 16 19 23 19 13 13 6 3 0 0 0 0 0 3 10 16 13 10 6
13 13 16 16 13 13 13 16 13 19 26 26 26 19 10 16 23 19 19 29 32 29 29 23 16 16 10 19 10 3 0 0 0 0 0 0 0 3 6 16 13 6 10
3 6 6 6 6 6 10 10 10 10 10 10 10 6 6 6 6 6 10 10 19 23 23 23 16 16 10 3 3 3 0 0 0 0 0 0 0 3 6 13 19 10 10
3 3 3 3 3 3 6 6 6 6 6 6 6 6 6 6 6 3 3 6 6 6 10 13 10 13 3 0 0 0 0 0 0 0 0 0 0 3 3 10 16 19 10
3 3 3 3 3 0 0 3 6 6 6 6 6 6 3 6 0 3 0 0 3 3 3 3 3 3 0 0 0 0 0 0 0 0 0 0 3 3 6 10 19 16 16
3 3 3 3 3 0 3 3 6 6 3 3 3 3 3 3 0 0 0 0 0 0 0 0 0 0 0 0 0 0 0 0 0 0 0 0 0 3 6 10 16 19 13
3 3 3 6 3 0 3 3 3 3 3 3 3 3 3 0 0 0 0 0 0 0 0 0 0 0 0 0 0 0 0 0 0 0 0 0 0 0 10 10 13 13 10
0 0 6 6 3 0 3 3 3 0 3 3 3 3 3 0 0 0 0 0 0 0 0 0 0 0 0 0 0 0 0 0 0 0 0 0 0 0 3 6 6 13 13
0 0 0 6 3 3 0 0 0 0 3 3 3 3 0 0 0 0 0 0 0 0 0 0 0 0 0 0 0 0 0 0 0 0 0 0 0 0 0 6 6 16 16
0 0 0 0 0 0 0 0 0 0 0 0 0 0 0 0 0 0 0 0 0 0 0 0 0 0 0 0 0 0 0 0 0 0 0 0 0 0 0 0 3 10 16
0 0 0 0 0 0 0 0 0 0 0 0 0 0 0 0 0 0 0 0 0 0 0 0 0 0 0 0 0 0 0 0 0 0 0 0 0 0 0 0 0 0 3
0 0 0 0 0 0 0 0 0 0 0 0 0 0 0 0 0 0 0 0 0 0 0 0 0 0 0 0 0 0 0 0 0 0 0 0 0 0 0 0 0 0 0
0 0 0 0 0 0 0 0 0 0 0 0 0 0 0 0 0 0 0 0 0 0 0 0 0 0 0 0 0 0 0 0 0 0 0 0 0 0 0 0 0 0 0
0 0 0 0 0 0 0 0 0 0 0 0 0 0 0 0 0 0 0 0 0 0 0 0 0 0 0 0 0 0 0 0 0 0 0 0 0 0 0 0 0 0 0
0 0 0 0 0 0 0 0 0 0 0 0 0 0 0 0 0 0 0 0 0 0 0 0 0 0 0 0 0 0 0 0 0 0 0 0 0 0 0 0 0 0 0
0 0 0 0 0 0 0 0 0 0 0 0 0 0 0 0 0 0 0 0 0 0 0 0 0 0 0 0 0 0 0 0 0 0 0 0 0 0 0 0 0 0 0
0 0 0 0 0 0 0 0 0 0 0 0 0 0 0 0 0 0 0 0 0 0 0 0 0 0 0 0 0 0 0 0 0 0 0 0 0 0 0 0 0 0 0
0 0 0 0 0 0 0 0 0 0 0 0 0 0 0 0 0 0 0 0 0 0 0 0 0 0 0 0 0 0 0 0 0 0 0 0 0 0 0 0 0 0 0

GEFSSE_con_cape1000_186.txt.gz
Probability
16 29 52 58 61 61 58 48 48 48 52 42 42 45 39 26 23 32 32 26 19 26 26 23 16 16 10 13 16 6 6 16 16 16 13 13 16 13 10 10 10 0 10
23 39 55 58 58 58 55 48 45 48 48 42 39 39 29 29 29 26 26 26 23 19 23 23 23 23 16 10 10 10 10 13 13 3 0 0 0 6 13 13 10 0 3
23 42 55 55 58 58 55 48 48 42 42 32 29 29 26 26 23 23 29 26 26 19 13 16 19 26 19 23 13 13 13 10 10 3 0 0 0 6 6 10 6 3 3
32 42 55 55 55 55 52 48 52 48 42 35 32 29 26 23 23 23 19 19 19 19 19 16 13 19 23 26 16 16 6 10 13 6 0 0 0 0 0 6 10 0 3
35 42 52 55 55 55 55 52 52 48 45 42 35 35 32 26 29 26 23 19 16 19 19 19 19 16 16 19 23 10 13 13 10 3 0 0 0 0 0 0 10 6 3
39 39 48 52 55 55 55 52 48 45 48 45 42 42 35 26 23 23 26 26 23 19 19 16 16 19 19 10 13 10 13 16 10 3 0 0 0 0 0 0 3 3 3
32 35 48 52 52 55 55 55 52 48 45 42 42 39 39 32 29 26 26 23 19 19 19 19 19 19 16 10 10 6 16 13 6 0 0 0 0 3 3 0 3 3 3
29 35 42 45 45 52 45 48 52 42 42 39 39 39 32 32 32 32 26 26 19 19 19 19 16 13 16 16 10 6 6 3 3 0 0 0 0 0 6 3 6 0 3
26 29 29 29 29 35 35 35 35 29 26 26 23 23 23 19 23 29 32 23 23 23 19 16 16 13 13 13 16 3 3 3 3 0 0 0 0 0 6 10 0 13 6
19 16 16 16 16 19 23 23 23 23 19 19 19 10 6 6 6 13 13 13 19 19 16 16 16 16 13 10 6 0 0 0 0 0 0 0 0 0 10 10 6 6 3
10 10 10 10 10 10 10 13 13 13 13 13 6 3 3 0 3 6 6 6 10 13 6 13 16 16 6 3 0 0 0 0 0 0 0 0 0 6 6 10 10 10 6
6 10 10 6 6 10 10 10 6 6 3 6 0 3 0 0 0 3 6 6 6 3 3 6 10 6 3 0 0 0 0 0 0 0 0 0 0 3 6 3 13 13 3
3 6 3 6 6 6 10 6 6 3 3 0 0 0 0 0 0 3 6 3 3 3 3 3 3 0 0 0 0 0 0 0 0 0 0 0 0 3 3 3 10 10 10
3 3 3 3 6 6 6 6 3 3 3 0 0 0 0 0 0 3 3 3 3 3 3 3 0 0 0 0 0 0 0 0 0 0 0 0 0 3 6 10 6 3 6
0 0 0 3 3 3 0 3 3 3 3 0 0 0 0 0 0 3 3 3 0 3 3 0 0 0 0 0 0 0 0 0 0 0 0 0 0 0 0 6 6 10 3
0 0 0 0 3 3 3 3 3 3 3 3 0 0 0 0 0 0 3 0 0 0 0 0 0 0 0 0 0 0 0 0 0 0 0 0 0 0 0 3 3 6 10
0 0 0 0 0 0 0 0 3 3 3 3 0 0 0 0 0 0 0 0 0 0 0 0 0 0 0 0 0 0 0 0 0 0 0 0 0 0 0 0 6 6 10
0 0 0 0 0 0 0 0 0 0 3 3 3 0 0 0 0 0 0 0 0 0 0 0 0 0 0 0 0 0 0 0 0 0 0 0 0 0 0 0 0 3 6
0 0 0 0 0 0 0 0 0 0 3 0 0 0 0 0 0 0 0 0 0 0 0 0 0 0 0 0 0 0 0 0 0 0 0 0 0 0 0 0 0 0 0
0 0 0 0 0 0 0 0 0 0 0 0 0 0 0 0 0 0 0 0 0 0 0 0 0 0 0 0 0 0 0 0 0 0 0 0 0 0 0 0 0 0 0
0 0 0 0 0 0 0 0 0 0 0 0 0 0 0 0 0 0 0 0 0 0 0 0 0 0 0 0 0 0 0 0 0 0 0 0 0 0 0 0 0 0 0
0 0 0 0 0 0 0 0 0 0 0 0 0 0 0 0 0 0 0 0 0 0 0 0 0 0 0 0 0 0 0 0 0 0 0 0 0 0 0 0 0 0 0
0 0 0 0 0 0 0 0 0 0 0 0 0 0 0 0 0 0 0 0 0 0 0 0 0 0 0 0 0 0 0 0 0 0 0 0 0 0 0 0 0 0 0
0 0 0 0 0 0 0 0 0 0 0 0 0 0 0 0 0 0 0 0 0 0 0 0 0 0 0 0 0 0 0 0 0 0 0 0 0 0 0 0 0 0 0
0 0 0 0 0 0 0 0 0 0 0 0 0 0 0 0 0 0 0 0 0 0 0 0 0 0 0 0 0 0 0 0 0 0 0 0 0 0 0 0 0 0 0
0 0 0 0 0 0 0 0 0 0 0 0 0 0 0 0 0 0 0 0 0 0 0 0 0 0 0 0 0 0 0 0 0 0 0 0 0 0 0 0 0 0 0